| time (UTC) | temp F | wind direction | speed knots | gust knots | rain 1hr in | rain 24hr in | rain mn in | humidity % | barometer mb |
| 20260506143013 | 58 | 172 | 1.7 | 7.8 | 0.00 | 0.00 | 0.00 | 87 | 1009.9 |
| 20260506141510 | 59 | 164 | 2.6 | 8.7 | 0.00 | 0.00 | 0.00 | 86 | 1010.2 |
| 20260506140009 | 59 | 157 | 0.0 | 9.6 | 0.00 | 0.00 | 0.00 | 86 | 1010.2 |
| 20260506134509 | 60 | 185 | 0.9 | 9.6 | 0.00 | 0.00 | 0.00 | 86 | 1010.4 |
| 20260506133007 | 59 | 190 | 1.7 | 10.4 | 0.00 | 0.00 | 0.00 | 86 | 1010.5 |
| 20260506131507 | 59 | 157 | 2.6 | 9.6 | 0.00 | 0.00 | 0.00 | 87 | 1010.2 |
| 20260506130005 | 58 | 190 | 1.7 | 13.9 | 0.00 | 0.00 | 0.00 | 88 | 1010.2 |
| 20260506124504 | 58 | 169 | 1.7 | 7.8 | 0.00 | 0.00 | 0.00 | 87 | 1010.3 |
| 20260506123002 | 59 | 101 | 0.9 | 7.8 | 0.00 | 0.00 | 0.00 | 88 | 1010.3 |
| 20260506121501 | 58 | 180 | 1.7 | 7.8 | 0.00 | 0.00 | 0.00 | 90 | 1010.6 |
| 20260506120106 | 57 | 184 | 0.9 | 6.1 | 0.00 | 0.00 | 0.00 | 91 | 1010.7 |
| 20260506114558 | 57 | 193 | 1.7 | 7.8 | 0.00 | 0.00 | 0.00 | 92 | 1010.7 |
| 20260506113100 | 57 | 188 | 2.6 | 8.7 | 0.00 | 0.00 | 0.00 | 92 | 1010.5 |
| 20260506111559 | 56 | 153 | 2.6 | 8.7 | 0.00 | 0.00 | 0.00 | 93 | 1010.4 |
| 20260506110057 | 55 | 157 | 0.9 | 6.1 | 0.00 | 0.00 | 0.00 | 93 | 1010.7 |
| 20260506104559 | 55 | 167 | 2.6 | 9.6 | 0.00 | 0.00 | 0.00 | 93 | 1010.5 |
| 20260506103055 | 55 | 192 | 0.9 | 7.0 | 0.00 | 0.00 | 0.00 | 93 | 1010.4 |
| 20260506101553 | 55 | 168 | 0.9 | 7.0 | 0.00 | 0.00 | 0.00 | 93 | 1010.3 |
| 20260506100059 | 55 | 159 | 2.6 | 7.0 | 0.00 | 0.00 | 0.00 | 93 | 1010.3 |
| 20260506094602 | 55 | 195 | 0.9 | 3.5 | 0.00 | 0.00 | 0.00 | 92 | 1010.3 |
| 20260506093047 | 55 | 147 | 0.9 | 6.1 | 0.00 | 0.00 | 0.00 | 92 | 1010.4 |
| 20260506091545 | 56 | 162 | 1.7 | 8.7 | 0.00 | 0.00 | 0.00 | 92 | 1010.4 |
| 20260506090044 | 56 | 153 | 1.7 | 7.8 | 0.00 | 0.00 | 0.00 | 92 | 1010.5 |
| 20260506084544 | 56 | 145 | 0.9 | 6.1 | 0.00 | 0.00 | 0.00 | 91 | 1010.5 |
| 20260506083042 | 56 | 149 | 1.7 | 6.1 | 0.00 | 0.00 | 0.00 | 91 | 1010.7 |
| 20260506081640 | 56 | 170 | 0.0 | 4.3 | 0.00 | 0.00 | 0.00 | 91 | 1010.7 |
| 20260506073037 | 56 | 191 | 1.7 | 7.8 | 0.00 | 0.00 | 0.00 | 90 | 1010.8 |
| 20260506071536 | 56 | 177 | 3.5 | 8.7 | 0.00 | 0.00 | 0.00 | 90 | 1011.0 |
| 20260506061531 | 56 | 178 | 0.9 | 5.2 | 0.00 | 0.00 | 0.00 | 89 | 1010.9 |
| 20260506044533 | 57 | 169 | 1.7 | 13.0 | 0.00 | 0.00 | 0.00 | 86 | 1011.3 |
| 20260506043023 | 58 | 214 | 1.7 | 8.7 | 0.00 | 0.00 | 0.00 | 86 | 1011.2 |
| 20260506041522 | 58 | 168 | 0.9 | 8.7 | 0.00 | 0.00 | 0.00 | 85 | 1011.3 |
| 20260506040017 | 58 | 180 | 2.6 | 7.0 | 0.00 | 0.00 | 0.00 | 85 | 1011.3 |
| 20260506034516 | 58 | 211 | 1.7 | 10.4 | 0.00 | 0.00 | 0.00 | 84 | 1011.2 |
| 20260506033015 | 59 | 225 | 2.6 | 9.6 | 0.00 | 0.00 | 0.00 | 83 | 1011.1 |
| 20260506031517 | 59 | 222 | 2.6 | 12.2 | 0.00 | 0.00 | 0.00 | 83 | 1011.0 |
| 20260506030015 | 59 | 173 | 1.7 | 6.1 | 0.00 | 0.00 | 0.00 | 83 | 1011.0 |
| 20260506024518 | 60 | 232 | 2.6 | 10.4 | 0.00 | 0.00 | 0.00 | 83 | 1011.1 |
| 20260506023018 | 60 | 197 | 1.7 | 8.7 | 0.00 | 0.00 | 0.00 | 82 | 1011.2 |
| 20260506021514 | 60 | 169 | 2.6 | 7.0 | 0.00 | 0.00 | 0.00 | 82 | 1011.1 |
| 20260506020011 | 60 | 255 | 1.7 | 7.8 | 0.00 | 0.00 | 0.00 | 80 | 1011.1 |
| 20260506014506 | 60 | 170 | 1.7 | 10.4 | 0.00 | 0.00 | 0.00 | 80 | 1011.0 |
| 20260506013003 | 60 | 146 | 2.6 | 12.2 | 0.00 | 0.00 | 0.00 | 79 | 1010.9 |
| 20260506011623 | 60 | 155 | 2.6 | 13.9 | 0.00 | 0.00 | 0.00 | 79 | 1010.8 |
| 20260506004549 | 61 | 211 | 3.5 | 12.2 | 0.00 | 0.00 | 0.00 | 77 | 1010.5 |
| 20260506003045 | 62 | 182 | 2.6 | 9.6 | 0.00 | 0.00 | 0.00 | 76 | 1010.3 |
| 20260506001543 | 63 | 178 | 2.6 | 7.0 | 0.00 | 0.00 | 0.00 | 75 | 1010.0 |
| 20260506000041 | 62 | 143 | 2.6 | 8.7 | 0.00 | 0.00 | 0.00 | 74 | 1009.8 |
| 20260505234532 | 63 | 202 | 4.3 | 11.3 | 0.00 | 0.00 | 0.00 | 74 | 1009.6 |
| 20260505233032 | 63 | 209 | 2.6 | 10.4 | 0.00 | 0.00 | 0.00 | 72 | 1009.2 |
| 20260505231527 | 63 | 170 | 4.3 | 9.6 | 0.00 | 0.00 | 0.00 | 73 | 1008.9 |
| 20260505230019 | 63 | 161 | 5.2 | 13.9 | 0.00 | 0.00 | 0.00 | 74 | 1008.9 |
| 20260505224514 | 62 | 178 | 3.5 | 10.4 | 0.00 | 0.00 | 0.00 | 74 | 1009.0 |
| 20260505223016 | 62 | 211 | 4.3 | 15.6 | 0.00 | 0.00 | 0.00 | 74 | 1008.8 |
| 20260505221505 | 63 | 163 | 5.2 | 13.9 | 0.00 | 0.00 | 0.00 | 72 | 1008.8 |
| 20260505220108 | 64 | 167 | 4.3 | 12.2 | 0.00 | 0.00 | 0.00 | 72 | 1008.6 |
| 20260505214558 | 64 | 187 | 4.3 | 13.9 | 0.00 | 0.00 | 0.00 | 71 | 1008.6 |
| 20260505213050 | 64 | 174 | 4.3 | 15.6 | 0.00 | 0.00 | 0.00 | 71 | 1008.7 |
| 20260505211546 | 64 | 221 | 4.3 | 13.9 | 0.00 | 0.00 | 0.00 | 71 | 1008.4 |
| 20260505210049 | 64 | 200 | 5.2 | 13.9 | 0.00 | 0.00 | 0.00 | 72 | 1008.4 |
| 20260505204542 | 64 | 226 | 3.5 | 13.9 | 0.00 | 0.00 | 0.00 | 72 | 1008.5 |
| 20260505203034 | 65 | 203 | 3.5 | 12.2 | 0.00 | 0.00 | 0.00 | 71 | 1008.6 |
| 20260505201528 | 65 | 165 | 3.5 | 7.0 | 0.00 | 0.00 | 0.00 | 70 | 1008.6 |
| 20260505200024 | 65 | 191 | 4.3 | 12.2 | 0.00 | 0.00 | 0.00 | 71 | 1008.8 |
| 20260505194522 | 65 | 157 | 4.3 | 10.4 | 0.00 | 0.00 | 0.00 | 71 | 1009.1 |
| 20260505193025 | 66 | 211 | 4.3 | 13.0 | 0.00 | 0.00 | 0.00 | 69 | 1009.2 |
| 20260505191512 | 65 | 115 | 3.5 | 9.6 | 0.00 | 0.00 | 0.00 | 71 | 1009.6 |
| 20260505190008 | 65 | 168 | 3.5 | 12.2 | 0.00 | 0.00 | 0.00 | 71 | 1009.8 |
| 20260505184502 | 65 | 151 | 3.5 | 13.9 | 0.00 | 0.00 | 0.00 | 71 | 1010.2 |
| 20260505183059 | 66 | 227 | 3.5 | 9.6 | 0.00 | 0.00 | 0.00 | 70 | 1010.3 |
| 20260505181553 | 66 | 161 | 3.5 | 12.2 | 0.00 | 0.00 | 0.00 | 71 | 1010.5 |
| 20260505180049 | 65 | 103 | 2.6 | 9.6 | 0.00 | 0.00 | 0.00 | 72 | 1010.5 |
| 20260505174544 | 66 | 148 | 3.5 | 10.4 | 0.00 | 0.00 | 0.00 | 72 | 1010.6 |
| 20260505173040 | 66 | 167 | 2.6 | 10.4 | 0.00 | 0.00 | 0.00 | 71 | 1010.7 |
| 20260505171544 | 67 | 177 | 0.9 | 10.4 | 0.00 | 0.00 | 0.00 | 70 | 1010.8 |
| 20260505170039 | 67 | 158 | 1.7 | 9.6 | 0.00 | 0.00 | 0.00 | 69 | 1010.8 |
| 20260505164553 | 68 | 231 | 0.9 | 7.8 | 0.00 | 0.00 | 0.00 | 69 | 1010.9 |
| 20260505163037 | 67 | 134 | 0.9 | 7.0 | 0.00 | 0.00 | 0.00 | 70 | 1010.9 |
| 20260505161548 | 69 | 252 | 1.7 | 7.0 | 0.00 | 0.00 | 0.00 | 68 | 1011.2 |
| 20260505153024 | 67 | 128 | 0.9 | 4.3 | 0.00 | 0.00 | 0.00 | 71 | 1011.4 |
| 20260505151519 | 66 | 127 | 1.7 | 7.8 | 0.00 | 0.00 | 0.00 | 72 | 1011.6 |